Park Rapids, MN

4:43 PM CDT on August 20, 2017 (GMT -0500)
Park Rapids Municipal

Weather History for KPKD - June, 2014

Change the Weather History Date:

Thursday, June 12, 2014

  Actual Average Record
Temperature  
Mean Temperature 56 °F -  
Max Temperature 64 °F 77 °F 92 °F (1956)
Min Temperature 48 °F 51 °F 36 °F (1982)
Degree Days  
Heating Degree Days 9    
Growing Degree Days 6 (Base 50)    
Moisture  
Dew Point 45 °F    
Average Humidity 77    
Maximum Humidity 97    
Minimum Humidity 35    
Precipitation  
Precipitation 0.22 in - - ()
Sea Level Pressure  
Sea Level Pressure 29.84 in    
Wind  
Wind Speed 20 mph (NW)    
Max Wind Speed 25 mph    
Max Gust Speed 38 mph    
Visibility 10 miles    
Events Rain    
Averages and records for this station are not official NWS values.
T = Trace of Precipitation, MM = Missing Value Source: NWS Daily Summary

Daily Weather History Graph

Daily Weather History Graph

Search for Another Location

Airport or City:

Trip Planner

Search our weather history database for the weather conditions in past years. The results will help you decide how hot, cold, wet, or windy it might be!

Date:

Astronomy

Jun. 12, 2014 Rise Set
Actual Time 5:25 AM CDT 9:15 PM CDT
Civil Twilight 4:45 AM CDT 9:54 PM CDT
Nautical Twilight 3:52 AM CDT 10:48 PM CDT
Astronomical Twilight 2:33 AM CDT 12:07 AM CDT
Moon 8:43 PM CDT (6/12) 5:12 AM CDT (6/12)
Length of Visible Light 17h 08m
Length of Day
15h 49m
Full, 100% of the Moon is Illuminated
Jun 12
Full
Jun 12
Full
Jun 19
Last Quarter
Jun 27
New
Jul 5
First Quarter

Hourly Weather History & Observations

Time (CDT) Temp. Dew Point Humidity Pressure Visibility Wind Dir Wind Speed Gust Speed Precip Events Conditions
12:29 AM 54.0 °F 53.1 °F 97% 29.66 in 6.0 mi NNW 23.0 mph 32.2 mph 0.07 in Rain Light Rain
12:40 AM 54.0 °F 52.0 °F 93% 29.66 in 10.0 mi NNW 21.9 mph 38.0 mph 0.07 in Rain Light Rain
12:53 AM 55.0 °F 52.0 °F 89% 29.65 in 10.0 mi North 24.2 mph 34.5 mph 0.08 in Rain Light Rain
1:13 AM 54.0 °F 52.0 °F 93% 29.68 in 10.0 mi NW 13.8 mph 26.5 mph 0.00 in   Overcast
1:53 AM 53.1 °F 48.9 °F 86% 29.69 in 10.0 mi NW 25.3 mph 36.8 mph 0.00 in   Overcast
2:44 AM 51.1 °F 46.9 °F 86% 29.70 in 10.0 mi NW 20.7 mph 36.8 mph N/A   Overcast
2:53 AM 51.1 °F 48.0 °F 89% 29.72 in 10.0 mi NW 24.2 mph 32.2 mph N/A   Overcast
3:53 AM 50.0 °F 48.0 °F 93% 29.74 in 10.0 mi NW 21.9 mph - 0.03 in Rain Light Rain
4:53 AM 48.9 °F 46.9 °F 93% 29.77 in 9.0 mi WNW 20.7 mph 26.5 mph 0.07 in Rain Light Rain
5:19 AM 48.9 °F 46.9 °F 93% 29.77 in 10.0 mi WNW 20.7 mph 27.6 mph 0.02 in Rain Light Rain
5:23 AM 48.0 °F 46.9 °F 96% 29.77 in 10.0 mi WNW 20.7 mph 27.6 mph 0.02 in Rain Light Rain
5:53 AM 48.0 °F 46.0 °F 93% 29.80 in 10.0 mi WNW 18.4 mph - 0.03 in Rain Light Rain
6:53 AM 48.0 °F 46.0 °F 93% 29.81 in 10.0 mi NW 19.6 mph - 0.01 in Rain Light Rain
7:53 AM 48.0 °F 46.0 °F 93% 29.82 in 10.0 mi NW 20.7 mph 28.8 mph 0.00 in   Overcast
9:53 AM 48.0 °F 46.0 °F 93% 29.88 in 9.0 mi NW 18.4 mph 26.5 mph N/A   Overcast
10:22 AM 50.0 °F 46.9 °F 89% 29.86 in 10.0 mi WNW 19.6 mph 25.3 mph N/A   Overcast
10:53 AM 51.1 °F 46.9 °F 86% 29.89 in 10.0 mi WNW 19.6 mph 27.6 mph N/A   Overcast
11:53 AM 53.1 °F 46.0 °F 77% 29.90 in 10.0 mi WNW 19.6 mph 26.5 mph N/A   Overcast
12:53 PM 53.1 °F 46.0 °F 77% 29.92 in 10.0 mi WNW 17.3 mph - N/A   Overcast
1:53 PM 55.9 °F 46.0 °F 69% 29.92 in 10.0 mi NW 16.1 mph - N/A   Overcast
2:26 PM 59.0 °F 46.0 °F 62% 29.90 in 10.0 mi NNW 18.4 mph 29.9 mph N/A   Mostly Cloudy
2:53 PM 61.0 °F 44.1 °F 54% 29.92 in 10.0 mi NW 20.7 mph 33.4 mph N/A   Mostly Cloudy
3:53 PM 64.0 °F 42.1 °F 45% 29.92 in 10.0 mi NNW 24.2 mph 33.4 mph N/A   Scattered Clouds
4:53 PM 64.9 °F 39.0 °F 39% 29.93 in 10.0 mi NNW 24.2 mph 32.2 mph N/A   Partly Cloudy
5:53 PM 64.0 °F 36.0 °F 35% 29.94 in 10.0 mi NW 20.7 mph 28.8 mph N/A   Clear
6:53 PM 63.0 °F 36.0 °F 37% 29.95 in 10.0 mi NNW 16.1 mph 27.6 mph N/A   Clear
7:53 PM 63.0 °F 37.9 °F 40% 29.96 in 10.0 mi NNW 18.4 mph 25.3 mph N/A   Clear
8:53 PM 59.0 °F 39.9 °F 49% 29.97 in 10.0 mi NW 11.5 mph - N/A   Clear
9:53 PM 53.1 °F 43.0 °F 69% 29.99 in 10.0 mi NW 5.8 mph - N/A   Clear
10:53 PM 48.9 °F 43.0 °F 80% 30.00 in 10.0 mi WNW 4.6 mph - N/A   Clear
11:53 PM 48.0 °F 44.1 °F 86% 30.01 in 10.0 mi WNW 4.6 mph - N/A   Clear